• In Hungary
  • List of Countries
  • For 7 days
  • Water Temperature
  • Satellite Maps
  • Weather Map
  • News
  • Weather Widgets
  • user-avatar
    Login

    Hourly Weather Peschanka

    Today, 25 September, Tuesday

    Time Temperature Precipitation Wind Pressure Humidity
    00:00 +7°C° 0 mm 5 mps 743 mmHg 74%
    01:00 +6°C° 0 mm 5 mps 743 mmHg 74%
    02:00 +6°C° 0 mm 4 mps 743 mmHg 76%
    03:00 +6°C° 0 mm 5 mps 743 mmHg 77%
    04:00 +5°C° 0 mm 5 mps 743 mmHg 78%
    05:00 +5°C° 0 mm 5 mps 743 mmHg 79%
    06:00 +5°C° 0 mm 6 mps 744 mmHg 75%
    07:00 +6°C° 0 mm 7 mps 744 mmHg 72%
    08:00 +7°C° 0 mm 8 mps 745 mmHg 68%
    09:00 +7°C° 0 mm 8 mps 746 mmHg 65%
    10:00 +7°C° 0 mm 8 mps 746 mmHg 62%
    11:00 +9°C° 0 mm 8 mps 747 mmHg 59%
    12:00 +9°C° 0 mm 8 mps 747 mmHg 57%
    13:00 +9°C° 0 mm 8 mps 747 mmHg 55%
    14:00 +10°C° 0 mm 8 mps 748 mmHg 53%
    15:00 +10°C° 0 mm 7 mps 748 mmHg 52%
    16:00 +10°C° 0 mm 7 mps 748 mmHg 52%
    17:00 +10°C° 0 mm 6 mps 749 mmHg 51%
    18:00 +9°C° 0 mm 6 mps 749 mmHg 55%
    19:00 +8°C° 0 mm 5 mps 750 mmHg 58%
    20:00 +7°C° 0 mm 4 mps 750 mmHg 62%
    21:00 +6°C° 0 mm 5 mps 751 mmHg 64%
    22:00 +6°C° 0 mm 5 mps 751 mmHg 66%
    23:00 +6°C° 0 mm 5 mps 752 mmHg 68%

    Tomorrow, 26 September, Wednesday

    Time Temperature Precipitation Wind Pressure Humidity
    00:00 +5°C° 0 mm 5 mps 752 mmHg 70%
    01:00 +5°C° 0 mm 5 mps 752 mmHg 72%
    02:00 +5°C° 0 mm 4 mps 753 mmHg 74%
    03:00 +4°C° 0 mm 4 mps 753 mmHg 76%
    04:00 +4°C° 0 mm 4 mps 753 mmHg 78%
    05:00 +4°C° 0 mm 4 mps 754 mmHg 80%
    06:00 +3°C° 0 mm 5 mps 754 mmHg 76%
    07:00 +5°C° 0 mm 5 mps 755 mmHg 73%
    08:00 +5°C° 0 mm 6 mps 755 mmHg 69%
    09:00 +7°C° 0 mm 6 mps 755 mmHg 60%
    10:00 +8°C° 0 mm 6 mps 755 mmHg 51%
    11:00 +10°C° 0 mm 6 mps 756 mmHg 42%
    12:00 +10°C° 0 mm 6 mps 756 mmHg 40%
    13:00 +12°C° 0 mm 5 mps 755 mmHg 38%
    14:00 +12°C° 0 mm 5 mps 755 mmHg 37%
    15:00 +12°C° 0 mm 4 mps 755 mmHg 39%
    16:00 +12°C° 0 mm 4 mps 755 mmHg 41%
    17:00 +11°C° 0 mm 3 mps 755 mmHg 43%
    18:00 +10°C° 0 mm 3 mps 755 mmHg 47%
    19:00 +9°C° 0 mm 2 mps 755 mmHg 51%
    20:00 +9°C° 0 mm 1 mps 755 mmHg 55%
    21:00 +8°C° 0 mm 1 mps 755 mmHg 56%
    22:00 +8°C° 0 mm 1 mps 755 mmHg 58%
    23:00 +8°C° 0 mm 1 mps 755 mmHg 59%

    Day after tomorrow, 27 September, Thursday

    Time Temperature Precipitation Wind Pressure Humidity
    00:00 +6°C° 0 mm 2 mps 755 mmHg 60%
    01:00 +6°C° 0 mm 2 mps 754 mmHg 61%
    02:00 +6°C° 0 mm 2 mps 754 mmHg 62%
    03:00 +6°C° 0 mm 2 mps 753 mmHg 63%
    04:00 +4°C° 0 mm 3 mps 753 mmHg 64%
    05:00 +4°C° 0 mm 3 mps 752 mmHg 65%
    06:00 +5°C° 0 mm 3 mps 752 mmHg 61%
    07:00 +6°C° 0 mm 4 mps 752 mmHg 57%
    08:00 +7°C° 0 mm 4 mps 752 mmHg 53%
    09:00 +9°C° 0 mm 5 mps 751 mmHg 48%
    10:00 +10°C° 0 mm 5 mps 751 mmHg 44%
    11:00 +13°C° 0 mm 6 mps 751 mmHg 39%
    12:00 +13°C° 0 mm 6 mps 751 mmHg 39%
    13:00 +14°C° 0 mm 6 mps 750 mmHg 38%
    14:00 +14°C° 0 mm 6 mps 750 mmHg 37%
    15:00 +14°C° 0 mm 5 mps 750 mmHg 39%
    16:00 +14°C° 0 mm 4 mps 749 mmHg 42%
    17:00 +14°C° 0 mm 4 mps 749 mmHg 44%
    18:00 +13°C° 0 mm 4 mps 749 mmHg 49%
    19:00 +12°C° 0 mm 3 mps 749 mmHg 53%
    20:00 +11°C° 0 mm 3 mps 749 mmHg 57%
    21:00 +11°C° 0 mm 3 mps 749 mmHg 60%
    22:00 +11°C° 0 mm 3 mps 749 mmHg 63%
    23:00 +12°C° 0 mm 2 mps 749 mmHg 66%

    28 September, Friday

    Time Temperature Precipitation Wind Pressure Humidity
    00:00 +12°C° 0 mm 2 mps 749 mmHg 68%
    01:00 +12°C° 0 mm 2 mps 748 mmHg 70%
    02:00 +12°C° 0 mm 2 mps 748 mmHg 71%
    03:00 +10°C° 0 mm 2 mps 748 mmHg 72%
    04:00 +10°C° 0 mm 2 mps 747 mmHg 74%
    05:00 +10°C° 0 mm 2 mps 747 mmHg 75%
    06:00 +12°C° 0 mm 2 mps 747 mmHg 71%
    07:00 +12°C° 0 mm 2 mps 747 mmHg 68%
    08:00 +13°C° 0 mm 2 mps 746 mmHg 65%
    09:00 +14°C° 0 mm 3 mps 746 mmHg 60%
    10:00 +17°C° 0 mm 3 mps 746 mmHg 55%
    11:00 +19°C° 0 mm 4 mps 746 mmHg 50%
    12:00 +20°C° 0 mm 3 mps 745 mmHg 48%
    13:00 +21°C° 0 mm 3 mps 745 mmHg 46%
    14:00 +22°C° 0 mm 3 mps 744 mmHg 44%
    15:00 +21°C° 0 mm 3 mps 744 mmHg 46%
    16:00 +21°C° 0 mm 2 mps 743 mmHg 48%
    17:00 +20°C° 0 mm 2 mps 743 mmHg 50%
    18:00 +19°C° 0 mm 2 mps 743 mmHg 53%
    19:00 +18°C° 0 mm 2 mps 743 mmHg 55%
    20:00 +17°C° 0 mm 2 mps 743 mmHg 58%
    21:00 +16°C° 0 mm 2 mps 743 mmHg 59%
    22:00 +16°C° 0 mm 2 mps 743 mmHg 60%
    23:00 +15°C° 0 mm 1 mps 743 mmHg 62%

    29 September, Saturday

    Time Temperature Precipitation Wind Pressure Humidity
    00:00 +15°C° 0 mm 1 mps 743 mmHg 63%
    01:00 +14°C° 0 mm 1 mps 743 mmHg 64%
    02:00 +14°C° 0 mm 1 mps 743 mmHg 65%
    03:00 +14°C° 0 mm 1 mps 743 mmHg 66%
    04:00 +13°C° 0 mm 1 mps 743 mmHg 67%
    05:00 +13°C° 0 mm 1 mps 743 mmHg 69%
    06:00 +14°C° 0 mm 1 mps 743 mmHg 67%
    07:00 +15°C° 0 mm 1 mps 743 mmHg 65%
    08:00 +15°C° 0 mm 1 mps 743 mmHg 63%
    09:00 +16°C° 0 mm 1 mps 744 mmHg 62%
    10:00 +17°C° 0 mm 2 mps 744 mmHg 61%
    11:00 +17°C° 0 mm 2 mps 744 mmHg 61%
    12:00 +18°C° 0 mm 3 mps 744 mmHg 60%
    13:00 +18°C° 0 mm 3 mps 744 mmHg 60%
    14:00 +19°C° 0 mm 4 mps 744 mmHg 60%
    15:00 +18°C° 0 mm 4 mps 744 mmHg 64%
    16:00 +16°C° 0 mm 5 mps 744 mmHg 68%
    17:00 +15°C° 0 mm 5 mps 745 mmHg 71%
    18:00 +15°C° 0 mm 5 mps 745 mmHg 74%
    19:00 +14°C° 0 mm 5 mps 745 mmHg 77%
    20:00 +13°C° 0 mm 5 mps 746 mmHg 79%
    21:00 +13°C° 0 mm 5 mps 746 mmHg 79%
    22:00 +13°C° 0 mm 4 mps 746 mmHg 79%
    23:00 +13°C° 0 mm 4 mps 747 mmHg 79%

    30 September, Sunday

    Time Temperature Precipitation Wind Pressure Humidity
    00:00 +13°C° 0 mm 4 mps 747 mmHg 79%
    01:00 +13°C° 0 mm 4 mps 747 mmHg 79%
    02:00 +13°C° 0 mm 4 mps 747 mmHg 79%
    03:00 +12°C° 0 mm 4 mps 747 mmHg 79%
    04:00 +12°C° 0 mm 4 mps 748 mmHg 80%
    05:00 +12°C° 0 mm 4 mps 748 mmHg 80%
    06:00 +12°C° 0 mm 4 mps 748 mmHg 78%
    07:00 +12°C° 0 mm 4 mps 748 mmHg 77%
    08:00 +13°C° 0 mm 4 mps 748 mmHg 75%
    09:00 +14°C° 0 mm 4 mps 748 mmHg 69%
    10:00 +17°C° 0 mm 4 mps 748 mmHg 63%
    11:00 +19°C° 0 mm 4 mps 749 mmHg 57%
    12:00 +19°C° 0 mm 4 mps 748 mmHg 54%
    13:00 +20°C° 0 mm 4 mps 748 mmHg 52%
    14:00 +20°C° 0 mm 4 mps 747 mmHg 50%
    15:00 +20°C° 0 mm 4 mps 747 mmHg 51%
    16:00 +19°C° 0 mm 4 mps 747 mmHg 53%
    17:00 +19°C° 0 mm 4 mps 747 mmHg 55%
    18:00 +17°C° 0 mm 4 mps 747 mmHg 57%
    19:00 +15°C° 0 mm 4 mps 747 mmHg 59%
    20:00 +14°C° 0 mm 3 mps 747 mmHg 61%
    21:00 +13°C° 0 mm 3 mps 747 mmHg 61%
    22:00 +13°C° 0 mm 3 mps 747 mmHg 60%
    23:00 +12°C° 0 mm 3 mps 747 mmHg 60%
    Show more